Location: Blackwater Beach
(38.5801°N, 75.1577°W)
Time: 10:49:10
(UTC+00:00)

Cosmos 2061 Rocket - Pass Details

Date: 13 February 2026
Orbit: 965 x 1012 km, 82.9° (Epoch: 10 March)

Event Time Altitude Azimuth Distance (km) Brightness Sun altitude
Rises 23:16:33 0° 352° (N) 3,731 7.0 -8.5°
Reaches altitude 10° 23:19:06 10° 353° (N) 2,771 6.4 -8.9°
Maximum altitude 23:25:29 89° 268° (W) 993 4.1 -10.2°
Drops below altitude 10° 23:31:44 10° 176° (S) 2,721 6.4 -11.4°
Sets 23:34:13 0° 176° (S) 3,658 7.1 -11.9°
